This demonstration page uses our WeatherBlox Daily Observations layout. Learn more.

Left ArrowRight Arrow

36.17497, -115.13722

Hourly Observations for September 8, 2015

Temp ( °F °C ) Dew Point ( °F °C ) Humidity (%) Winds ( mph kmh ) Pressure ( in mb ) Visibility ( mi km ) Precip ( " mm )
12:53 am 00:53 Clear 82 27.8 44 6.7 26 26 N 7 11 29.87 1011 10 16 N/A
1:53 am 01:53 Clear 83 28.3 43 6.1 24 24 WNW 6 9 29.86 1011 10 16 N/A
2:53 am 02:53 Clear 81 27.2 41 5 24 24 ESE 3 6 29.86 1011 10 16 N/A
3:53 am 03:53 Clear 80 26.7 41 5 25 25 NE 3 6 29.88 1012 10 16 N/A
4:53 am 04:53 Clear 81 27.2 41 5 24 24 N 8 13 29.88 1012 10 16 N/A
5:53 am 05:53 Clear 79 26.1 42 5.6 27 27 N 9 15 29.88 1012 10 16 N/A
6:53 am 06:53 Sunny 77 25 44 6.7 31 31 NW 5 7 29.92 1013 10 16 N/A
7:53 am 07:53 Sunny 83 28.3 45 7.2 26 26 NNW 5 7 29.93 1014 10 16 N/A
8:53 am 08:53 Sunny 89 31.7 44 6.7 21 21 N 6 9 29.93 1014 10 16 N/A
9:53 am 09:53 Sunny 90 32.2 44 6.7 20 20 ESE 7 11 29.95 1014 10 16 N/A
10:53 am 10:53 Sunny 93 33.9 44 6.7 18 18 ESE 7 11 29.94 1014 10 16 N/A
11:53 am 11:53 Sunny 96 35.6 46 7.8 18 18 VRB 6 9 29.93 1013 10 16 N/A
12:53 pm 12:53 Sunny 96 35.6 43 6.1 16 16 N N/A 29.91 1013 10 16 N/A
1:53 pm 13:53 Sunny 99 37.2 42 5.6 14 14 VRB 6 9 29.88 1012 10 16 N/A
2:53 pm 14:53 Sunny 100 37.8 42 5.6 14 14 NW 5 7 29.85 1011 10 16 N/A
3:53 pm 15:53 Sunny 100 37.8 42 5.6 14 14 W 8 13 29.81 1010 10 16 N/A
4:53 pm 16:53 Sunny 100 37.8 42 5.6 14 14 N N/A 29.80 1009 10 16 N/A
5:53 pm 17:53 Sunny 100 37.8 41 5 13 13 NNW 3 6 29.79 1009 10 16 N/A
6:53 pm 18:53 Sunny 99 37.2 41 5 14 14 WSW 3 6 29.80 1009 10 16 N/A
7:53 pm 19:53 Clear 97 36.1 42 5.6 15 15 WSW 5 7 29.81 1009 10 16 N/A
8:53 pm 20:53 Clear 94 34.4 43 6.1 17 17 N 3 6 29.84 1010 10 16 N/A
9:53 pm 21:53 Clear 91 32.8 43 6.1 19 19 N 3 6 29.86 1011 10 16 N/A
10:53 pm 22:53 Clear 88 31.1 42 5.6 20 20 NNW 7 11 29.86 1011 10 16 N/A
11:53 pm 23:53 Clear 85 29.4 43 6.1 23 23 N 6 9 29.85 1011 10 16 N/A

Powered by AerisWeather